Terminal Aerodrome Forecast
Issued by NWS

Home | Current Version | Previous Version | Graphics & Text | Print | Product List | Glossary On
Versions: 1 2 3 4 5 6 7 8 9 10 11 12 13 14 15 16 17 18 19 20 21
504
FTUS43 KGRB 231525 AAA
TAFCWA
TAF AMD
KCWA 231525Z 2315/2412 03010G14KT P6SM OVC035
     FM231700 04010KT P6SM BKN018
     FM231900 05007KT 5SM -SHRA BR OVC009
     FM240100 04008KT 6SM BR VCSH BKN015 OVC040=

USA.gov is the U.S. government's official web portal to all federal, state and local government web resources and services.